Location: Fazenda Monte Alegre
(4.8500°S, 38.0333°W)
Time: 15:33:41
(UTC+00:00)

COSMOS 2455 - Pass Details

Date: 24 September 2020
Orbit: 898 x 911 km, 67.1° (Epoch: 20 October)

Event Time Altitude Azimuth Distance (km) Brightness Sun altitude
Rises 22:28:36 0° 216° (SW) 3,521 6.4 -31.0°
Reaches altitude 10° 22:31:19 10° 225° (SW) 2,579 5.7 -31.6°
Maximum altitude 22:36:40 34° 288° (WNW) 1,431 4.2 -33.0°
Enters shadow 22:40:10 19° 341° (NNW) 2,005 4.7 -33.8°
